A4033 KBLV-KBLV

Flight info

Callsign A4033
Flight time 0h 38m
Altitude 16000
Route LINDY9 ARC MOA LINDBERGH D0010 DIXIE3
Aircraft LJ35/L-DYRGS/S

Departure

Time 2026-05-07 20:24
Airport Scott AFB/Midamerica Airport (KBLV)

Arrival

Time 2026-05-07 21:02
Airport Scott AFB/Midamerica Airport (KBLV)
Time Latitude Longitude Altitude Speed Heading
2026-05-07 20:13 38.54429 -89.84585 463 ft 0 kts 44°
2026-05-07 20:15 38.54432 -89.84574 463 ft 1 kts 89°
2026-05-07 20:15 38.54424 -89.84560 463 ft 3 kts 142°
2026-05-07 20:15 38.54405 -89.84540 463 ft 5 kts 142°
2026-05-07 20:16 38.54373 -89.84508 463 ft 7 kts 142°
2026-05-07 20:16 38.54330 -89.84464 463 ft 0 kts 130°
2026-05-07 20:16 38.54328 -89.84461 463 ft 0 kts 140°
2026-05-07 20:19 38.54317 -89.84458 463 ft 4 kts 192°
2026-05-07 20:19 38.54272 -89.84507 463 ft 13 kts 224°
2026-05-07 20:20 38.54189 -89.84611 463 ft 20 kts 224°
2026-05-07 20:20 38.54101 -89.84721 463 ft 16 kts 224°
2026-05-07 20:20 38.54028 -89.84812 463 ft 13 kts 224°
2026-05-07 20:20 38.53971 -89.84882 463 ft 9 kts 210°
2026-05-07 20:21 38.53904 -89.84841 463 ft 16 kts 136°
2026-05-07 20:21 38.53800 -89.84714 463 ft 25 kts 136°
2026-05-07 20:21 38.53684 -89.84573 463 ft 21 kts 136°
2026-05-07 20:21 38.53585 -89.84452 463 ft 18 kts 133°
2026-05-07 20:22 38.53597 -89.84365 463 ft 9 kts 48°
2026-05-07 20:22 38.53638 -89.84338 463 ft 5 kts 340°
2026-05-07 20:22 38.53654 -89.84351 463 ft 0 kts 319°
2026-05-07 20:23 38.53656 -89.84353 463 ft 4 kts 318°
2026-05-07 20:23 38.53866 -89.84605 463 ft 84 kts 316°
2026-05-07 20:24 38.54510 -89.85394 492 ft 170 kts 316°
2026-05-07 20:24 38.55450 -89.86548 1537 ft 183 kts 316°
2026-05-07 20:24 38.56326 -89.87636 3299 ft 169 kts 313°
2026-05-07 20:24 38.57100 -89.88787 4461 ft 186 kts 309°
2026-05-07 20:25 38.57933 -89.90142 5072 ft 195 kts 308°
2026-05-07 20:25 38.58754 -89.91501 5646 ft 193 kts 307°
2026-05-07 20:25 38.59598 -89.92866 6235 ft 197 kts 307°
2026-05-07 20:25 38.60479 -89.94219 6812 ft 199 kts 307°
2026-05-07 20:26 38.61388 -89.95558 7388 ft 200 kts 308°
2026-05-07 20:26 38.62303 -89.96886 8072 ft 195 kts 308°
2026-05-07 20:26 38.63205 -89.98187 8873 ft 197 kts 308°
2026-05-07 20:26 38.64129 -89.99521 9684 ft 203 kts 308°
2026-05-07 20:27 38.64948 -90.01061 10017 ft 223 kts 288°
2026-05-07 20:27 38.65033 -90.02979 10312 ft 209 kts 262°
2026-05-07 20:27 38.64692 -90.04747 10733 ft 202 kts 255°
2026-05-07 20:27 38.64251 -90.06453 11166 ft 206 kts 252°
2026-05-07 20:28 38.63770 -90.08194 11603 ft 209 kts 252°
2026-05-07 20:28 38.63281 -90.09930 12233 ft 200 kts 252°
2026-05-07 20:28 38.62810 -90.11590 13075 ft 198 kts 252°
2026-05-07 20:28 38.62335 -90.13258 13929 ft 202 kts 252°
2026-05-07 20:29 38.61854 -90.14952 14782 ft 202 kts 252°
2026-05-07 20:29 38.61379 -90.16619 15619 ft 199 kts 252°
2026-05-07 20:29 38.60887 -90.18324 16032 ft 219 kts 250°
2026-05-07 20:29 38.60220 -90.20180 16024 ft 233 kts 246°
2026-05-07 20:30 38.59477 -90.22021 16007 ft 234 kts 244°
2026-05-07 20:30 38.58704 -90.23872 16004 ft 238 kts 244°
2026-05-07 20:30 38.57908 -90.25767 16005 ft 244 kts 244°
2026-05-07 20:30 38.57098 -90.27692 16005 ft 249 kts 244°
2026-05-07 20:31 38.56272 -90.29655 16003 ft 251 kts 244°
2026-05-07 20:31 38.55445 -90.31624 16002 ft 253 kts 244°
2026-05-07 20:31 38.54612 -90.33608 16001 ft 253 kts 244°
2026-05-07 20:31 38.53790 -90.35570 16001 ft 254 kts 244°
2026-05-07 20:32 38.52955 -90.37563 16000 ft 254 kts 244°
2026-05-07 20:32 38.52121 -90.39554 16000 ft 255 kts 244°
2026-05-07 20:32 38.51286 -90.41548 16000 ft 255 kts 244°
2026-05-07 20:32 38.50452 -90.43543 16000 ft 255 kts 244°
2026-05-07 20:33 38.49617 -90.45542 16000 ft 255 kts 244°
2026-05-07 20:33 38.48785 -90.47534 16000 ft 255 kts 244°
2026-05-07 20:33 38.47952 -90.49527 16000 ft 255 kts 244°
2026-05-07 20:33 38.47118 -90.51527 16000 ft 255 kts 244°
2026-05-07 20:34 38.46284 -90.53526 16000 ft 255 kts 244°
2026-05-07 20:34 38.45454 -90.55518 16000 ft 255 kts 244°
2026-05-07 20:34 38.44622 -90.57514 16000 ft 255 kts 244°
2026-05-07 20:34 38.43791 -90.59511 16000 ft 255 kts 244°
2026-05-07 20:35 38.42958 -90.61512 16000 ft 255 kts 244°
2026-05-07 20:35 38.42129 -90.63506 16000 ft 255 kts 244°
2026-05-07 20:35 38.41300 -90.65501 16000 ft 255 kts 244°
2026-05-07 20:35 38.40470 -90.67498 16000 ft 255 kts 244°
2026-05-07 20:36 38.39649 -90.69477 16000 ft 255 kts 244°
2026-05-07 20:36 38.38819 -90.71477 16000 ft 255 kts 244°
2026-05-07 20:36 38.37992 -90.73473 16000 ft 255 kts 244°
2026-05-07 20:36 38.37164 -90.75470 16000 ft 255 kts 244°
2026-05-07 20:37 38.36337 -90.77465 16000 ft 255 kts 244°
2026-05-07 20:37 38.35510 -90.79463 16000 ft 255 kts 244°
2026-05-07 20:37 38.34684 -90.81461 16000 ft 255 kts 244°
2026-05-07 20:37 38.33858 -90.83459 16000 ft 255 kts 244°
2026-05-07 20:38 38.33030 -90.85462 16000 ft 255 kts 244°
2026-05-07 20:38 38.32217 -90.87431 16000 ft 255 kts 244°
2026-05-07 20:38 38.31394 -90.89426 16000 ft 255 kts 244°
2026-05-07 20:38 38.30569 -90.91425 16000 ft 255 kts 244°
2026-05-07 20:39 38.29744 -90.93425 16000 ft 255 kts 244°
2026-05-07 20:39 38.28921 -90.95424 16000 ft 255 kts 244°
2026-05-07 20:39 38.28097 -90.97423 16000 ft 255 kts 244°
2026-05-07 20:39 38.27277 -90.99416 16000 ft 255 kts 244°
2026-05-07 20:40 38.26454 -91.01418 16000 ft 255 kts 244°
2026-05-07 20:40 38.25634 -91.03412 16000 ft 255 kts 244°
2026-05-07 20:40 38.24574 -91.05221 15995 ft 260 kts 223°
2026-05-07 20:40 38.22917 -91.06159 15999 ft 270 kts 193°
2026-05-07 20:41 38.21025 -91.05919 16001 ft 281 kts 164°
2026-05-07 20:41 38.19396 -91.04512 16001 ft 291 kts 135°
2026-05-07 20:41 38.18440 -91.02249 16001 ft 296 kts 105°
2026-05-07 20:41 38.18375 -90.99641 16008 ft 297 kts 80°
2026-05-07 20:42 38.18863 -90.97097 16008 ft 297 kts 71°
2026-05-07 20:42 38.19835 -90.94820 15998 ft 292 kts 44°
2026-05-07 20:42 38.21465 -90.93404 16000 ft 281 kts 15°
2026-05-07 20:42 38.23331 -90.93025 16010 ft 273 kts 356°
2026-05-07 20:43 38.25245 -90.93135 16006 ft 272 kts 350°
2026-05-07 20:43 38.27143 -90.93208 15997 ft 278 kts
2026-05-07 20:43 38.29009 -90.92507 16007 ft 283 kts 17°
2026-05-07 20:43 38.30808 -90.91453 16004 ft 285 kts 22°
2026-05-07 20:44 38.32549 -90.90300 16001 ft 286 kts 24°
2026-05-07 20:44 38.34302 -90.89092 16000 ft 286 kts 24°
2026-05-07 20:44 38.36052 -90.87868 16000 ft 287 kts 25°
2026-05-07 20:44 38.37586 -90.86227 15983 ft 294 kts 49°
2026-05-07 20:45 38.38497 -90.83835 15619 ft 307 kts 72°
2026-05-07 20:45 38.38956 -90.81140 15220 ft 311 kts 80°
2026-05-07 20:45 38.39241 -90.78418 14813 ft 310 kts 83°
2026-05-07 20:45 38.39352 -90.75681 14401 ft 308 kts 92°
2026-05-07 20:46 38.39187 -90.72969 13939 ft 307 kts 97°
2026-05-07 20:46 38.38916 -90.70264 13441 ft 308 kts 98°
2026-05-07 20:46 38.38611 -90.67584 13191 ft 300 kts 99°
2026-05-07 20:46 38.38309 -90.65033 13112 ft 289 kts 99°
2026-05-07 20:47 38.38010 -90.62534 13097 ft 283 kts 99°
2026-05-07 20:47 38.37711 -90.60039 13097 ft 280 kts 99°
2026-05-07 20:47 38.37417 -90.57584 13099 ft 280 kts 99°
2026-05-07 20:47 38.37126 -90.55147 13101 ft 282 kts 99°
2026-05-07 20:48 38.36832 -90.52678 13101 ft 283 kts 99°
2026-05-07 20:48 38.36534 -90.50178 13101 ft 284 kts 99°
2026-05-07 20:48 38.36241 -90.47717 12973 ft 290 kts 99°
2026-05-07 20:48 38.35927 -90.45086 12527 ft 299 kts 99°
2026-05-07 20:49 38.35618 -90.42493 12089 ft 300 kts 99°
2026-05-07 20:49 38.35306 -90.39869 11645 ft 299 kts 99°
2026-05-07 20:49 38.34994 -90.37243 11200 ft 299 kts 99°
2026-05-07 20:49 38.34680 -90.34596 10751 ft 299 kts 99°
2026-05-07 20:50 38.34373 -90.32008 10311 ft 299 kts 99°
2026-05-07 20:50 38.34064 -90.29387 9865 ft 298 kts 99°
2026-05-07 20:50 38.33756 -90.26780 9421 ft 298 kts 99°
2026-05-07 20:50 38.33449 -90.24176 8976 ft 297 kts 99°
2026-05-07 20:51 38.33143 -90.21579 8532 ft 297 kts 99°
2026-05-07 20:51 38.32838 -90.18978 8087 ft 296 kts 99°
2026-05-07 20:51 38.32534 -90.16390 7642 ft 295 kts 99°
2026-05-07 20:51 38.32232 -90.13810 7198 ft 295 kts 99°
2026-05-07 20:52 38.31929 -90.11227 6752 ft 294 kts 99°
2026-05-07 20:52 38.31731 -90.09527 6458 ft 294 kts 99°
2026-05-07 20:52 38.31425 -90.06972 6134 ft 288 kts 98°
2026-05-07 20:52 38.31115 -90.04503 6031 ft 275 kts 98°
2026-05-07 20:53 38.30812 -90.02163 5999 ft 263 kts 99°
2026-05-07 20:53 38.30516 -89.99910 5993 ft 254 kts 99°
2026-05-07 20:53 38.30224 -89.97701 5996 ft 252 kts 99°
2026-05-07 20:53 38.29945 -89.95503 6000 ft 251 kts 96°
2026-05-07 20:54 38.29562 -89.93336 6005 ft 252 kts 108°
2026-05-07 20:54 38.28981 -89.91227 6002 ft 253 kts 110°
2026-05-07 20:54 38.28423 -89.89103 6001 ft 253 kts 107°
2026-05-07 20:54 38.27950 -89.86912 5696 ft 263 kts 103°
2026-05-07 20:55 38.27578 -89.84637 5399 ft 262 kts 99°
2026-05-07 20:55 38.27297 -89.82356 5100 ft 260 kts 96°
2026-05-07 20:55 38.27083 -89.80110 4805 ft 257 kts 95°
2026-05-07 20:55 38.26938 -89.77852 4502 ft 255 kts 88°
2026-05-07 20:56 38.27410 -89.75728 4197 ft 250 kts 58°
2026-05-07 20:56 38.28664 -89.74264 3898 ft 246 kts 26°
2026-05-07 20:56 38.30290 -89.73632 3617 ft 244 kts 11°
2026-05-07 20:56 38.31965 -89.73290 3319 ft 244 kts
2026-05-07 20:57 38.33634 -89.72930 3131 ft 239 kts 11°
2026-05-07 20:57 38.35227 -89.72475 3029 ft 231 kts 14°
2026-05-07 20:57 38.36740 -89.71926 2999 ft 221 kts 17°
2026-05-07 20:57 38.38167 -89.71316 2991 ft 211 kts 19°
2026-05-07 20:58 38.39520 -89.70677 2990 ft 202 kts 21°
2026-05-07 20:58 38.40817 -89.70090 2985 ft 194 kts 11°
2026-05-07 20:58 38.42083 -89.70330 2990 ft 185 kts 332°
2026-05-07 20:58 38.43078 -89.71298 3006 ft 177 kts 316°
2026-05-07 20:59 38.43958 -89.72443 2763 ft 184 kts 313°
2026-05-07 20:59 38.44833 -89.73618 2535 ft 176 kts 314°
2026-05-07 20:59 38.45661 -89.74684 2486 ft 163 kts 315°
2026-05-07 20:59 38.46446 -89.75658 2486 ft 151 kts 316°
2026-05-07 21:00 38.47201 -89.76574 2490 ft 149 kts 316°
2026-05-07 21:00 38.47965 -89.77492 2396 ft 156 kts 316°
2026-05-07 21:00 38.48764 -89.78452 2257 ft 158 kts 316°
2026-05-07 21:00 38.49563 -89.79414 2109 ft 158 kts 316°
2026-05-07 21:01 38.50350 -89.80361 1914 ft 156 kts 316°
2026-05-07 21:01 38.51132 -89.81302 1611 ft 152 kts 316°
2026-05-07 21:01 38.51876 -89.82200 1287 ft 145 kts 316°
2026-05-07 21:01 38.52610 -89.83085 935 ft 146 kts 316°
2026-05-07 21:02 38.53332 -89.83958 604 ft 140 kts 316°
2026-05-07 21:02 38.54006 -89.84777 464 ft 123 kts 316°
2026-05-07 21:02 38.54574 -89.85469 463 ft 99 kts 316°
2026-05-07 21:02 38.54840 -89.85793 463 ft 38 kts 316°
2026-05-07 21:03 38.55020 -89.86009 463 ft 33 kts 316°
2026-05-07 21:03 38.55120 -89.86129 463 ft 5 kts 302°
2026-05-07 21:03 38.55137 -89.86189 463 ft 9 kts 258°
2026-05-07 21:03 38.55081 -89.86240 463 ft 11 kts 150°
2026-05-07 21:04 38.55017 -89.86158 463 ft 15 kts 135°
2026-05-07 21:04 38.54931 -89.86051 463 ft 19 kts 135°
2026-05-07 21:04 38.54825 -89.85918 463 ft 23 kts 137°
2026-05-07 21:04 38.54693 -89.85768 463 ft 27 kts 138°
2026-05-07 21:05 38.54540 -89.85593 463 ft 31 kts 137°
2026-05-07 21:05 38.54406 -89.85428 463 ft 25 kts 136°
2026-05-07 21:05 38.54287 -89.85287 463 ft 22 kts 137°
2026-05-07 21:05 38.54183 -89.85167 463 ft 19 kts 138°
2026-05-07 21:06 38.54093 -89.85065 463 ft 16 kts 138°
2026-05-07 21:06 38.54019 -89.84980 463 ft 13 kts 137°
2026-05-07 21:06 38.53985 -89.84900 463 ft 9 kts 76°
2026-05-07 21:06 38.54021 -89.84836 463 ft 10 kts 47°
2026-05-07 21:07 38.54077 -89.84762 463 ft 14 kts 44°
2026-05-07 21:07 38.54141 -89.84683 463 ft 11 kts 44°
2026-05-07 21:07 38.54209 -89.84600 463 ft 13 kts 36°
2026-05-07 21:07 38.54267 -89.84637 463 ft 9 kts 314°
2026-05-07 21:08 38.54310 -89.84624 463 ft 12 kts 43°
2026-05-07 21:08 38.54356 -89.84568 463 ft 0 kts 43°